Weather History for KHHR - August, 2014

Change the Weather History Date:

Monday, August 25, 2014

  Actual Average Record
Temperature  
Mean Temperature 70 °F -  
Max Temperature 75 °F 76 °F 87 °F (2015)
Min Temperature 66 °F 64 °F 55 °F (1944)
Cooling Degree Days 4    
Growing Degree Days 20 (Base 50)    
Moisture  
Dew Point 61 °F    
Average Humidity 73    
Maximum Humidity 84    
Minimum Humidity 64    
Precipitation  
Precipitation 0.00 in - - ()
Sea Level Pressure  
Sea Level Pressure 29.91 in    
Wind  
Wind Speed 5 mph (West)    
Max Wind Speed 12 mph    
Max Gust Speed 17 mph    
Visibility 10 miles    
Events      
Averages and records for this station are not official NWS values.
T = Trace of Precipitation, MM = Missing Value Source: NWS Daily Summary

Daily Weather History Graph

Daily Weather History Graph

Search for Another Location

Airport or City:

Trip Planner

Search our weather history database for the weather conditions in past years. The results will help you decide how hot, cold, wet, or windy it might be!

Date:

Astronomy

Aug. 25, 2014 Rise Set
Actual Time 6:22 AM PDT 7:27 PM PDT
Civil Twilight 5:56 AM PDT 7:53 PM PDT
Nautical Twilight 5:25 AM PDT 8:24 PM PDT
Astronomical Twilight 4:53 AM PDT 8:56 PM PDT
Moon 6:29 AM PDT (8/25) 7:24 PM PDT (8/25)
Length of Visible Light 13h 57m
Length of Day
13h 05m
New Moon, 0% of the Moon is Illuminated
Aug 25
New Moon
Sep 2
First Quarter
Sep 8
Full
Sep 15
Last Quarter
Sep 23
New

Hourly Weather History & Observations

Time (PDT) Temp. Dew Point Humidity Pressure Visibility Wind Dir Wind Speed Gust Speed Precip Events Conditions
12:53 AM 68.0 °F 61.0 °F 78% 29.89 in 10.0 mi WSW 3.5 mph - N/A   Clear
2:53 AM 66.9 °F 61.0 °F 81% 29.87 in 10.0 mi WSW 4.6 mph - N/A   Clear
3:53 AM 66.9 °F 62.1 °F 84% 29.86 in 10.0 mi Calm Calm - N/A   Clear
4:53 AM 66.9 °F 62.1 °F 84% 29.86 in 10.0 mi Calm Calm - N/A   Clear
5:53 AM 66.9 °F 62.1 °F 84% 29.88 in 10.0 mi Calm Calm - N/A   Clear
7:53 AM 68.0 °F 62.1 °F 81% 29.90 in 10.0 mi Calm Calm - N/A   Clear
8:53 AM 69.1 °F 62.1 °F 78% 29.91 in 10.0 mi SW 3.5 mph - N/A   Clear
9:53 AM 70.0 °F 61.0 °F 73% 29.93 in 10.0 mi WSW 5.8 mph - N/A   Clear
10:53 AM 71.1 °F 61.0 °F 70% 29.94 in 10.0 mi West 5.8 mph - N/A   Partly Cloudy
11:53 AM 73.0 °F 61.0 °F 66% 29.94 in 10.0 mi WSW 8.1 mph - N/A   Clear
12:53 PM 71.1 °F 60.1 °F 68% 29.93 in 10.0 mi WSW 8.1 mph - N/A   Clear
1:53 PM 73.0 °F 61.0 °F 66% 29.92 in 10.0 mi WSW 9.2 mph - N/A   Clear
2:53 PM 73.9 °F 61.0 °F 64% 29.91 in 10.0 mi West 11.5 mph 17.3 mph N/A   Clear
3:53 PM 73.0 °F 60.1 °F 64% 29.90 in 10.0 mi WNW 10.4 mph - N/A   Clear
4:53 PM 73.0 °F 60.1 °F 64% 29.90 in 10.0 mi West 10.4 mph - N/A   Clear
5:53 PM 73.0 °F 60.1 °F 64% 29.88 in 10.0 mi WNW 6.9 mph - N/A   Clear
8:53 PM 69.1 °F 59.0 °F 70% 29.92 in 10.0 mi WNW 5.8 mph - N/A   Clear
9:53 PM 69.1 °F 59.0 °F 70% 29.93 in 10.0 mi WSW 8.1 mph - N/A   Clear
10:53 PM 69.1 °F 60.1 °F 73% 29.93 in 10.0 mi West 6.9 mph - N/A   Clear
11:53 PM 68.0 °F 60.1 °F 76% 29.94 in 10.0 mi WSW 9.2 mph - N/A   Clear